sat.trackr.live / text

‹ back to catalog

STARLINK-2726

NORAD 48662 · 2021-044AA

PAYLOAD ACTIVE UNKNOWN

§ Identity

Operator
Country
US
Launch date
2021-05-26
Launch site
AFETR
Launch vehicle
Mass (kg)
RCS (m²)

Purposes: comms

External: N2YO · Heavens-Above · Gunter

§ Orbital elements

Epoch: 2026-05-25T02:26:08.176128Z

Period
94.16 min
Inclination
53.1543°
Eccentricity
0.0001730
Mean motion
15.29352980 rev/d
Perigee alt
476.6 km
Apogee alt
478.9 km
Semi-major
6,855.9 km
B*
-3.8961e-6
RAAN
118.9759°
Arg perigee
87.4908°
Mean anomaly
272.6290°
Rev number
27,551

§ Raw data

STARLINK-27261 48662U 21044AA  26145.10148352 -.00000469  00000+0 -38961-5 0  99912 48662  53.1543 118.9759 0001730  87.4908 272.6290 15.29352980275518

JSON: /api/v1/satellites/48662 · /tle

For live sub-satellite position, see the globe view (requires WebGL).

§ Visibility from observer

Set your observer location to see the next 7 days of passes ≥ 10°. The values pass through the URL so the page stays shareable.

No JS? Fill the form by hand. The geolocation button needs JavaScript.